Location: Westminster
(33.3626°N, 96.4619°W)
Time: 19:39:04
(UTC+00:00)

Cosmos 1939 Rocket - Pass Details

Date: 03 December 2021
Orbit: 531 x 582 km, 97.4° (Epoch: 26 January)

Event Time Altitude Azimuth Distance (km) Brightness Sun altitude
Rises 12:39:16 0° 8° (N) 2,718 6.2 -7.4°
Reaches altitude 10° 12:41:25 10° 6° (N) 1,813 5.3 -7.0°
Maximum altitude 12:45:18 67° 283° (WNW) 584 2.7 -6.2°
Drops below altitude 10° 12:49:06 10° 201° (SSW) 1,780 5.5 -5.5°
Sets 12:51:12 0° 198° (SSW) 2,662 6.4 -5.1°
